Tracking 28052 objects as of 24-Sep-2023
HD Live streaming from Space Station
objects crossing your sky now

TIROS 6

Track TIROS 6 now!
10-day predictions
TIROS 6 is classified as:


NORAD ID: 397
Int'l Code: 1962-047A
Perigee: 599.5 km
Apogee: 607.8 km
Inclination: 58.3 °
Period: 96.6 minutes
Semi major axis: 6974 km
RCS: 0.807 m2 (medium)
Launch date: September 18, 1962
Source: United States (US)
Launch site: AIR FORCE EASTERN TEST RANGE (AFETR)
Your satellite tracking list
Your tracking list is empty




NASA's NSSDC Master Catalog

Two Line Element Set (TLE):
1 00397U 62047A   23267.51516059  .00001969  00000-0  22270-3 0  9991
2 00397  58.3050 138.0032 0005946 168.8065 191.3114 14.90453117263430
Source of the keplerian elements: AFSPC